Regional Weather Roundup
Issued by NWS Albany, NY

Home | Current Version | Previous Version | Text Only | Print | Product List | Glossary On
Versions: 1 2 3 4 5 6 7 8 9 10 11 12 13 14 15 16 17 18 19 20 21 22 23 24 25 26 27 28 29 30 31 32 33 34 35 36 37 38 39 40 41 42 43 44 45 46 47 48 49 50
000
ASUS41 KALY 290110
RWRALY

NEW YORK STATE HOURLY WEATHER ROUNDUP
NATIONAL WEATHER SERVICE ALBANY NY
900 PM EDT FRI AUG 28 2015

NOTE: "FAIR" INDICATES FEW OR NO CLOUDS BELOW 12,000 FEET WITH NO
SIGNIFICANT WEATHER AND/OR NO OBSTRUCTIONS TO VISIBILITY.

NYZ032-033-038>043-046>054-057>066-NYZ062>081-290200-
EAST


CITY           SKY/WX    TMP DP  RH WIND       PRES   REMARKS
ALBANY         PTCLDY    64  54  69 W7        30.18R
GLENS FALLS    CLEAR     67  55  65 SW7       30.16R
POUGHKEEPSIE   MOCLDY    67  57  70 CALM      30.16R
NEWBURGH       PTCLDY    66  59  77 VRB5      30.19R
MONTGOMERY     CLEAR     68  55  63 NW5       30.18R
WHITE PLAINS   CLEAR     68  54  60 NW5       30.18R
ISLIP          CLEAR     69  56  62 E3        30.15R
NEW YORK CITY  PTCLDY    77  53  43 N7        30.16R
CENTRAL PARK   CLEAR     76  51  41 VRB3      30.20R
$$

NYZ005>009-017-018-044>046-055-056-290200-
CENTRAL


CITY           SKY/WX    TMP DP  RH WIND       PRES   REMARKS
FULTON         CLEAR     58  55  90 CALM      30.19R
SYRACUSE       PTCLDY    61  57  87 E3        30.19R
ROME           CLEAR     61  57  87 CALM      30.21R
ELMIRA         CLEAR     62  57  83 CALM      30.19R
BINGHAMTON     CLEAR     63  53  70 NE3       30.22R
MONTICELLO     CLEAR     61  54  77 NW3       30.23R
$$

NYZ026>034-041>043-290200-
NORTH


CITY           SKY/WX    TMP DP  RH WIND       PRES   REMARKS
WATERTOWN      FAIR      60  54  80 S5        30.18R
FORT DRUM      NOT AVBL
MASSENA        CLEAR     62  55  77 SW6       30.17R
SARANAC LAKE   CLEAR     54  52  93 S3        30.19R
PLATTSBURGH    CLEAR     62  59  90 CALM      30.14R
$$

NYZ001>004-010>016-019>021-290200-
WEST


CITY           SKY/WX    TMP DP  RH WIND       PRES   REMARKS
NIAGARA FALLS  MOCLDY    63  56  78 S5        30.17R
BUFFALO        MOCLDY    65  55  70 S5        30.18R
DUNKIRK        PTCLDY    60  57  89 CALM      30.18S
JAMESTOWN      CLEAR     61  54  77 NE5       30.21R
WELLSVILLE     MOCLDY    63  54  72 E5        30.24R
ROCHESTER      PTCLDY    65  57  75 E5        30.18S
PENN YAN       CLEAR     59  55  87 CALM      30.20R
$$

             KEY
       WCI = WIND CHILL INDEX
       VSB = VISIBILITY
       HX  = HEAT INDEX
$$


USA.gov is the U.S. government's official web portal to all federal, state and local government web resources and services.